Wetbulb
71.11 71.35 71.69 71.83 72.07 72.15 71.66 70.98 70.11 69.41 69.00 69.07 69.74 68.82 67.30 65.16 66.63 65.99 64.67 64.02 63.20 63.36 63.29 62.42 62.21 61.74 61.25 60.96 61.77 60.54 59.52 57.67 56.02 57.34 58.75 60.26 60.92 60.84 61.60 62.57 63.83 62.46 62.29
71.52 71.43 71.28 71.41 71.17 71.50 72.35 72.04 71.06 69.35 69.27 68.77 69.36 68.65 68.02 66.86 65.12 66.66 65.39 65.51 63.98 62.77 63.18 63.01 62.50 63.60 61.81 62.11 62.20 61.38 59.50 59.72 58.22 56.86 57.79 59.17 59.77 60.80 61.20 61.05 62.40 64.14 63.10
71.11 71.63 71.54 71.50 71.53 71.08 71.42 72.30 72.14 70.89 69.15 69.17 69.03 68.95 68.18 67.51 66.08 65.91 66.43 65.45 64.95 64.50 63.29 63.32 63.15 62.53 61.74 62.56 62.24 61.86 61.91 61.36 59.91 58.72 58.68 59.31 59.93 60.64 60.22 60.66 61.29 61.40 62.50
71.09 71.16 71.28 71.44 71.77 71.90 71.84 71.19 72.22 72.54 70.96 69.20 69.21 69.33 69.05 68.64 67.51 66.82 66.26 65.84 65.23 64.94 64.63 64.13 63.49 63.01 62.08 62.65 62.24 61.75 61.84 61.47 59.89 58.98 58.50 58.56 58.76 59.41 58.81 58.45 58.15 57.77 58.37
71.01 71.33 71.28 71.93 72.34 72.50 72.27 71.89 71.80 72.07 72.10 70.99 69.48 69.18 69.42 68.76 68.76 67.47 66.88 66.03 65.22 65.23 64.68 64.92 64.65 64.94 65.53 63.79 62.95 62.51 62.70 60.86 61.38 58.94 57.78 57.24 57.84 57.52 57.47 57.64 56.52 56.74 57.44
71.27 71.57 72.09 72.28 72.67 72.73 72.89 72.76 72.14 71.69 71.78 70.66 70.07 69.57 68.99 69.16 65.63 65.45 67.73 66.85 65.85 65.31 64.76 64.48 64.98 66.77 66.10 64.97 64.66 64.28 63.57 61.64 61.13 58.93 57.84 57.44 58.55 58.47 57.58 56.96 56.52 55.18 54.40
71.76 72.08 72.20 72.11 72.18 72.59 73.39 73.16 72.46 71.59 71.74 70.79 70.32 70.07 69.19 69.46 63.30 63.42 66.18 67.52 66.09 65.68 65.50 66.01 65.45 66.56 65.47 65.61 63.93 63.76 63.47 63.14 62.97 60.19 58.86 59.15 59.23 59.18 58.17 57.67 55.48 54.96 54.46
71.67 72.15 72.64 72.47 72.19 72.59 72.66 73.16 73.32 72.80 71.86 71.56 70.23 70.30 69.64 69.48 62.21 61.71 64.83 67.79 66.43 66.93 66.97 66.28 65.83 65.79 64.75 64.57 63.58 62.81 63.17 62.83 61.98 62.67 61.53 61.47 60.06 61.27 58.89 58.17 56.86 55.28 54.60
71.12 72.00 72.62 73.29 72.86 72.77 72.67 72.82 73.39 73.69 72.77 72.34 71.47 70.02 69.82 69.58 60.39 60.10 63.06 67.35 66.90 66.83 67.26 66.95 66.57 65.38 62.47 61.62 63.17 62.23 62.43 61.96 61.98 60.41 60.40 60.20 60.42 60.39 59.96 57.44 55.83 53.54 52.12
71.29 71.97 72.79 73.44 73.40 73.09 73.39 73.36 73.61 74.01 73.68 73.14 72.27 71.36 68.42 70.11 58.82 58.55 62.78 67.54 66.60 66.51 66.63 66.63 62.92 64.08 59.07 58.47 62.74 62.31 61.24 59.37 59.55 58.70 58.22 57.69 57.09 56.13 58.70 57.58 55.82 53.11 50.11
71.48 72.67 72.78 73.48 73.24 73.57 73.59 73.91 73.75 73.82 73.71 72.96 72.60 72.43 70.56 69.73 62.06 56.86 59.82 67.22 66.95 65.98 65.65 62.42 62.54 58.10 55.85 54.95 57.60 61.49 60.27 58.70 58.96 56.82 54.55 52.98 52.27 52.47 52.66 52.62 54.24 53.46 50.72
70.24 70.48 72.08 72.54 73.42 73.48 73.16 73.55 73.85 73.80 73.31 72.55 72.76 71.03 70.62 67.19 59.13 55.73 58.15 61.08 62.09 64.27 61.11 61.65 62.16 56.78 52.39 51.50 54.38 54.74 55.11 57.28 55.26 53.21 51.25 50.08 50.65 51.35 49.79 50.31 49.22 51.43 53.92
67.97 68.86 69.64 71.23 72.52 73.25 72.88 73.25 73.54 73.49 72.90 72.30 70.87 68.93 67.34 66.60 62.25 55.59 55.65 55.34 57.51 61.33 62.17 61.09 55.65 51.50 49.67 52.77 54.54 54.91 54.54 54.17 52.21 50.39 49.42 49.39 50.63 49.43 48.90 47.13 47.22 45.16 44.56
66.27 67.36 68.57 69.06 70.81 72.45 73.18 73.70 73.60 73.03 72.41 70.33 68.93 67.62 66.53 65.85 65.47 61.42 58.91 58.19 57.28 60.20 56.76 56.94 56.42 55.98 55.09 56.10 54.77 53.62 54.05 51.96 50.76 49.63 49.43 49.97 49.79 47.94 45.93 45.68 43.87 42.44 40.88
66.51 66.22 68.06 69.54 69.53 64.59 56.90 66.58 73.22 66.35 70.03 68.88 67.70 67.28 65.92 65.21 64.08 57.93 57.82 59.00 61.18 58.27 57.16 57.36 56.80 54.49 54.76 52.82 52.17 51.63 50.76 50.65 50.50 49.80 50.25 49.85 48.77 45.84 45.23 43.50 42.01 40.82 39.39
68.97 66.40 64.06 62.79 61.64 60.88 60.60 58.29 51.30 54.22 54.40 54.58 55.49 62.01 62.27 56.40 50.23 48.60 45.88 48.06 48.96 50.41 57.64 57.58 56.94 55.56 53.25 52.39 51.59 50.89 50.18 52.03 49.71 49.80 50.20 49.85 47.65 45.02 43.72 41.26 41.09 39.49 38.25
63.53 63.21 63.16 62.45 63.75 63.96 62.77 62.84 61.54 58.03 52.59 49.14 46.97 49.14 53.86 52.77 45.88 44.25 45.16 44.98 46.79 52.09 57.68 56.08 53.75 52.62 52.11 52.07 51.39 50.88 51.00 51.67 51.43 51.09 49.95 47.03 45.38 42.13 41.02 40.92 39.28 38.74 38.97
63.73 58.21 64.34 64.74 65.51 63.30 62.33 61.39 62.23 61.88 62.55 57.62 47.82 48.02 45.52 44.43 44.43 44.25 43.53 47.46 54.77 54.24 53.93 53.83 53.03 53.05 52.87 52.31 52.21 51.54 50.64 47.89 46.67 44.74 42.21 41.18 40.38 40.47 40.48 38.67 38.23 38.06 38.06
64.19 63.87 64.23 64.68 63.69 62.11 62.38 62.06 62.41 62.56 60.50 54.61 51.27 47.46 44.15 42.77 42.98 43.89 46.39 58.16 56.92 53.19 51.84 51.54 51.25 50.94 51.04 50.49 49.53 47.62 44.87 43.07 42.34 41.14 39.82 40.96 41.47 39.89 38.39 38.24 38.77 42.03 40.82
64.18 60.66 61.64 61.40 59.71 59.86 59.67 59.26 58.72 56.94 56.26 57.66 58.24 52.90 48.99 51.65 53.93 53.18 52.21 53.18 53.61 51.93 49.77 49.05 49.22 49.20 48.34 47.37 45.98 45.02 43.67 42.42 41.12 40.35 39.74 39.66 39.79 38.69 38.42 38.98 38.40 38.02 38.48
62.91 62.69 60.82 61.74 60.44 59.96 59.58 59.07 57.22 57.03 56.32 57.10 57.06 52.92 48.82 55.85 53.56 52.67 52.57 51.79 50.88 50.54 48.62 48.99 48.37 47.95 47.40 46.10 45.18 44.35 43.35 42.10 40.50 39.91 40.55 39.00 38.68 38.33 38.64 38.37 38.04 38.77 38.04
59.91 60.48 61.79 61.11 60.41 58.96 58.57 57.77 56.44 55.28 55.08 53.96 50.72 47.49 44.61 53.54 53.68 52.35 50.58 50.06 50.29 50.04 50.35 49.47 48.54 48.18 48.23 47.13 45.42 43.69 42.00 40.88 40.29 39.67 38.69 38.62 38.54 38.95 38.89 38.70 38.52 38.34 37.35
58.45 58.57 58.12 58.10 58.68 57.38 58.70 57.91 55.44 53.91 53.39 53.11 52.18 50.37 49.45 50.83 51.29 51.27 50.43 49.89 50.19 49.66 48.95 48.69 48.38 47.22 47.15 46.71 45.75 44.51 41.58 40.85 41.04 39.91 39.46 38.95 38.28 37.90 38.24 37.95 38.26 37.00 36.41
58.11 57.61 57.88 57.13 57.06 57.46 58.03 57.80 57.14 53.64 55.80 54.23 53.41 51.45 50.85 50.64 51.26 51.10 50.71 50.77 50.70 51.18 49.61 48.93 48.93 50.13 46.27 43.67 42.59 41.55 41.16 40.92 40.24 40.29 39.96 38.83 36.90 37.38 37.19 37.23 37.68 36.60 37.10
57.94 58.84 57.98 58.00 57.79 57.16 57.01 57.61 58.06 58.52 58.68 57.31 55.62 53.25 51.64 50.70 50.95 51.87 52.10 51.99 51.69 50.87 50.36 50.24 49.78 47.32 44.84 43.61 41.58 40.36 38.66 37.24 39.54 37.69 36.93 36.18 35.82 35.76 35.96 37.44 37.55 36.97 37.36
60.08 59.72 58.86 58.58 58.01 57.64 57.33 57.53 57.53 58.36 58.61 57.79 57.10 54.87 52.90 51.20 51.25 51.91 52.83 52.38 51.83 51.37 50.76 50.20 48.29 47.04 45.53 43.50 41.76 39.20 33.46 34.77 36.32 33.74 35.40 35.41 34.61 33.93 36.04 38.12 38.60 37.57 36.71
MSLP
1005.77 1006.51 1007.25 1007.97 1008.75 1009.55 1010.09 1010.43 1010.70 1011.32 1011.90 1012.45 1012.95 1013.61 1014.28 1014.84 1015.30 1015.79 1016.12 1016.65 1017.16 1017.44 1017.74 1018.10 1018.32 1018.52 1018.80 1019.10 1019.26 1019.53 1019.88 1020.08 1020.48 1020.20 1020.08 1019.59 1019.34 1019.22 1019.13 1019.24 1019.20 1019.19 1019.15
1004.54 1005.36 1006.15 1006.87 1007.87 1008.64 1009.10 1009.63 1010.03 1010.47 1011.12 1011.68 1012.36 1013.09 1013.69 1014.17 1014.70 1015.15 1015.60 1016.04 1016.56 1017.06 1017.22 1017.60 1017.82 1018.12 1018.56 1018.76 1018.96 1019.31 1019.55 1019.60 1019.96 1020.26 1020.03 1019.76 1019.47 1019.22 1019.09 1019.03 1018.84 1018.78 1018.83
1003.85 1004.50 1005.26 1006.00 1006.78 1007.37 1007.96 1008.60 1009.25 1009.70 1010.24 1010.97 1011.59 1012.24 1012.88 1013.42 1013.96 1014.41 1014.81 1015.33 1015.70 1016.11 1016.47 1016.91 1017.22 1017.66 1018.09 1018.30 1018.58 1018.89 1019.02 1019.24 1019.54 1019.97 1019.93 1019.70 1019.54 1019.26 1019.15 1019.03 1018.83 1018.57 1018.37
1002.60 1003.49 1004.18 1004.88 1005.44 1006.15 1006.82 1007.53 1008.16 1008.73 1009.35 1009.93 1010.57 1011.19 1011.80 1012.44 1012.94 1013.53 1014.08 1014.50 1014.92 1015.38 1015.74 1016.17 1016.55 1016.99 1017.33 1017.79 1018.22 1018.60 1018.74 1018.92 1019.15 1019.44 1019.75 1019.79 1019.71 1019.35 1019.36 1019.31 1019.01 1018.84 1018.62
1001.51 1002.38 1002.85 1003.74 1004.21 1005.14 1005.91 1006.41 1007.04 1007.79 1008.27 1008.96 1009.71 1010.39 1010.92 1011.47 1011.93 1012.57 1013.09 1013.58 1014.15 1014.65 1015.12 1015.41 1015.75 1016.11 1016.48 1016.83 1017.35 1017.69 1018.06 1018.38 1018.78 1019.10 1019.40 1019.51 1019.53 1019.46 1019.53 1019.35 1019.33 1019.14 1018.69
1000.46 1000.71 1001.72 1002.73 1003.31 1003.91 1004.88 1005.63 1006.27 1006.84 1007.39 1008.13 1008.62 1009.20 1009.84 1010.26 1010.74 1011.36 1011.90 1012.63 1013.28 1013.86 1014.47 1015.02 1015.42 1015.68 1015.88 1015.93 1016.12 1016.62 1017.21 1017.72 1018.16 1018.69 1018.95 1019.24 1018.97 1018.94 1019.07 1019.14 1019.22 1019.48 1019.29
999.20 999.96 1000.75 1001.65 1002.25 1002.85 1003.92 1004.84 1005.28 1005.71 1006.37 1006.91 1007.42 1008.03 1008.54 1009.10 1009.74 1010.30 1011.09 1011.77 1012.39 1012.88 1013.53 1014.13 1014.64 1014.99 1015.23 1015.58 1015.92 1016.21 1016.52 1016.76 1016.86 1017.53 1018.10 1018.18 1018.27 1018.23 1018.32 1018.41 1018.72 1018.92 1018.83
997.96 999.02 999.92 1000.53 1000.94 1001.99 1002.91 1003.47 1004.13 1004.69 1005.01 1005.57 1006.23 1006.79 1007.62 1008.11 1008.69 1009.56 1010.33 1011.03 1011.67 1012.22 1012.62 1013.15 1013.72 1014.14 1014.55 1014.97 1015.43 1015.94 1016.18 1016.41 1016.61 1016.82 1017.03 1017.10 1017.30 1017.36 1017.69 1018.03 1018.21 1018.35 1018.36
997.32 997.94 998.55 999.47 1000.12 1000.96 1001.52 1001.94 1002.91 1003.90 1004.42 1004.65 1005.20 1006.13 1006.78 1007.37 1008.10 1008.92 1009.93 1010.77 1011.31 1011.76 1012.32 1012.69 1013.11 1013.39 1013.52 1013.99 1014.79 1015.25 1015.42 1015.75 1015.85 1016.29 1016.54 1016.74 1017.02 1017.19 1017.39 1017.71 1018.04 1018.50 1018.66
995.72 996.41 997.13 997.99 999.05 999.60 999.85 1000.58 1001.30 1002.19 1002.77 1003.85 1004.53 1004.99 1005.63 1006.58 1007.45 1008.29 1009.23 1010.24 1010.95 1011.46 1011.83 1012.13 1012.61 1012.96 1013.27 1013.71 1014.28 1014.79 1015.06 1015.41 1015.79 1016.05 1016.42 1016.66 1016.73 1016.82 1016.98 1017.29 1017.51 1018.10 1018.52
994.06 994.89 995.94 996.93 997.47 997.90 998.83 1000.01 1000.52 1001.31 1002.26 1003.02 1003.62 1004.23 1005.06 1005.79 1006.87 1007.71 1008.72 1009.61 1010.24 1011.13 1011.80 1012.14 1012.54 1012.90 1013.30 1013.42 1013.64 1014.14 1014.49 1015.14 1015.63 1016.09 1016.43 1016.75 1016.76 1016.77 1016.91 1016.90 1017.05 1017.40 1017.82
993.15 994.16 994.94 995.49 996.13 997.15 998.07 998.88 999.92 1000.60 1001.35 1002.11 1002.67 1003.63 1004.31 1005.23 1005.94 1007.38 1008.34 1008.96 1009.93 1010.59 1011.43 1011.80 1012.32 1013.08 1013.25 1013.36 1013.47 1013.78 1014.20 1014.65 1015.47 1016.14 1016.57 1016.82 1016.90 1016.85 1016.86 1016.88 1016.80 1016.80 1016.86
993.03 993.68 994.18 994.69 995.47 996.25 997.09 997.54 998.78 999.27 999.80 1000.83 1002.11 1003.16 1003.79 1004.59 1005.24 1006.23 1007.98 1008.11 1008.93 1009.78 1010.70 1011.17 1011.92 1012.52 1012.93 1013.36 1013.63 1013.34 1013.80 1014.40 1015.33 1016.08 1016.33 1016.57 1016.74 1016.90 1017.04 1016.99 1016.77 1016.51 1016.51
992.91 993.39 993.67 994.24 994.99 995.50 996.45 997.23 997.98 999.19 999.93 1001.22 1001.96 1002.46 1003.16 1003.96 1004.96 1004.92 1006.00 1008.14 1009.66 1009.64 1010.20 1011.12 1011.92 1012.45 1013.01 1013.09 1013.90 1013.70 1013.77 1014.21 1015.04 1015.52 1015.93 1016.30 1016.55 1016.72 1016.93 1016.94 1017.01 1016.81 1016.97
993.75 994.23 994.58 994.89 995.96 997.07 998.51 998.42 998.10 998.09 998.83 1000.50 1001.68 1002.82 1003.59 1002.96 1004.13 1006.30 1006.01 1007.82 1009.35 1010.53 1010.82 1011.39 1012.18 1012.69 1013.07 1013.50 1013.96 1014.19 1013.92 1014.17 1015.13 1015.46 1015.89 1016.34 1016.55 1016.69 1016.78 1016.78 1016.97 1017.08 1017.19
994.93 995.59 996.16 996.86 998.05 998.51 999.37 1000.46 1000.48 999.87 999.81 1000.00 1000.66 1001.61 1002.35 1003.21 1005.94 1006.86 1007.74 1008.22 1009.24 1010.16 1011.07 1011.10 1011.59 1012.40 1013.09 1013.60 1014.05 1014.61 1013.74 1013.79 1014.56 1015.08 1015.57 1016.03 1016.47 1016.50 1016.77 1016.74 1016.97 1017.20 1017.27
995.69 996.64 997.47 998.43 998.23 998.00 999.02 1000.04 1003.48 1000.50 1001.75 1001.79 1002.60 1003.22 1001.41 1001.10 1004.96 1006.62 1008.29 1008.97 1010.00 1010.74 1010.53 1010.99 1011.52 1012.01 1012.68 1013.19 1013.74 1013.95 1012.94 1013.47 1013.90 1014.56 1015.29 1015.84 1016.27 1016.41 1016.62 1016.64 1016.94 1017.05 1016.97
996.52 996.95 997.17 997.63 999.66 995.56 999.52 1000.05 1000.29 1001.32 1000.63 1003.74 1003.73 1004.74 1001.59 1001.52 1004.05 1006.96 1007.84 1009.53 1010.10 1010.02 1010.14 1010.85 1011.83 1011.99 1012.28 1012.71 1013.43 1012.86 1012.68 1013.44 1013.97 1014.56 1015.16 1015.61 1016.07 1016.41 1016.50 1016.59 1016.78 1016.99 1016.92
995.97 995.92 994.89 996.92 997.73 999.54 998.20 998.11 1001.35 1002.65 1003.78 1003.32 1004.21 1004.80 1004.95 1004.24 1005.19 1006.47 1007.51 1008.55 1009.10 1009.62 1010.25 1010.63 1011.30 1011.92 1012.03 1012.63 1012.59 1012.02 1012.74 1013.48 1014.10 1014.79 1015.04 1015.49 1015.87 1016.29 1016.43 1016.39 1016.53 1016.64 1016.67
996.58 997.10 997.58 998.83 999.52 998.11 996.82 999.86 1001.63 1002.25 1002.91 1003.53 1003.35 1004.56 1005.23 1005.80 1006.97 1007.43 1007.70 1008.31 1008.95 1009.32 1009.67 1010.52 1011.24 1011.53 1012.28 1012.00 1011.47 1011.94 1012.78 1013.50 1014.27 1014.68 1014.93 1015.29 1015.57 1016.05 1016.31 1016.36 1016.44 1016.48 1016.33
997.85 998.46 998.82 998.96 999.25 999.31 1000.14 1001.23 1001.52 1001.78 1002.22 1002.53 1003.42 1004.80 1005.12 1005.83 1006.26 1007.24 1007.86 1007.90 1008.40 1008.79 1009.62 1010.52 1011.24 1011.29 1011.26 1011.14 1011.12 1011.55 1012.59 1013.45 1014.12 1014.46 1014.65 1015.02 1015.49 1016.01 1016.01 1016.13 1016.21 1016.13 1016.06
998.59 998.95 999.21 999.43 1000.07 1000.77 1001.27 1001.51 1001.94 1002.50 1003.23 1003.98 1004.85 1005.46 1005.49 1005.80 1006.45 1007.05 1007.13 1007.36 1007.92 1008.84 1009.48 1010.03 1010.38 1010.45 1010.03 1010.18 1010.65 1011.57 1012.53 1013.22 1013.87 1014.19 1014.44 1014.40 1015.03 1015.59 1015.75 1015.88 1015.92 1015.82 1015.77
999.52 999.85 1000.08 1000.70 1001.07 1001.49 1001.79 1002.04 1002.38 1002.91 1003.43 1003.92 1004.56 1005.35 1006.02 1006.49 1006.58 1006.56 1006.90 1007.52 1008.24 1008.87 1009.46 1009.38 1009.35 1009.74 1009.53 1009.87 1010.58 1011.42 1012.16 1012.63 1013.07 1013.44 1013.98 1014.03 1014.79 1015.31 1015.48 1015.67 1015.70 1015.67 1015.52
1000.11 1000.75 1001.12 1001.11 1001.16 1001.12 1001.41 1001.80 1002.13 1002.90 1003.54 1004.15 1004.91 1005.22 1005.22 1005.67 1006.22 1006.74 1007.15 1007.56 1008.04 1008.36 1008.58 1008.93 1008.92 1008.78 1009.15 1010.01 1010.77 1011.36 1011.70 1011.97 1012.48 1013.19 1013.45 1013.52 1014.29 1014.84 1015.14 1015.36 1015.45 1015.41 1015.28
999.82 1000.09 1000.67 1001.20 1001.61 1001.88 1002.02 1002.00 1002.44 1003.17 1004.02 1003.97 1004.18 1004.59 1005.15 1005.28 1005.85 1006.47 1006.59 1007.15 1007.49 1007.64 1007.99 1008.11 1008.29 1008.95 1009.56 1009.96 1010.59 1011.25 1011.56 1011.76 1012.30 1012.87 1013.17 1013.26 1013.90 1014.40 1014.78 1014.99 1015.04 1015.03 1014.91
1000.53 1000.34 1000.71 1000.87 1001.33 1001.91 1002.26 1002.77 1002.98 1002.90 1003.21 1003.74 1003.87 1004.01 1004.65 1004.99 1005.34 1005.90 1006.15 1006.68 1006.87 1007.07 1007.39 1007.72 1008.03 1008.86 1009.57 1009.90 1010.37 1010.96 1011.65 1011.87 1012.18 1012.52 1012.77 1013.16 1013.76 1014.23 1014.52 1014.66 1014.59 1014.67 1014.64
Wind_Speed
19 18 17 15 14 12 12 11 12 10 10 10 11 11 10 10 9 9 7 7 7 6 5 6 6 4 3 3 2 2 3 3 3 2 2 2 2 1 1 1 4 5 5
20 19 19 17 14 14 14 12 12 13 11 11 11 11 11 11 10 11 10 8 9 8 7 6 7 4 5 5 3 4 4 4 4 4 2 2 3 1 3 4 3 3 4
19 19 18 18 16 17 17 15 13 14 13 12 12 13 13 13 12 12 11 10 10 9 8 8 7 7 6 4 4 4 3 3 3 3 3 1 2 1 2 3 3 4 2
20 20 20 19 19 17 17 16 15 15 14 14 14 14 14 14 13 13 12 11 10 9 9 9 8 8 8 6 5 6 4 4 3 3 3 2 3 2 1 2 3 1 2
20 20 22 19 18 17 17 16 15 15 15 14 13 13 13 13 11 13 13 13 12 10 8 9 8 9 11 10 5 6 6 4 3 3 2 1 2 2 3 1 3 2 3
21 23 20 19 18 18 17 16 15 15 15 13 14 15 15 11 16 19 17 13 12 12 10 6 6 10 11 14 15 12 9 6 5 4 3 4 4 3 2 3 2 1 4
22 20 20 19 19 18 16 15 16 17 15 15 16 16 16 16 18 21 20 12 11 11 10 10 7 7 10 7 9 11 10 9 7 6 5 5 4 5 4 3 4 3 4
21 19 18 20 20 18 17 18 17 15 17 16 14 16 14 13 18 19 22 13 9 10 10 10 11 11 8 8 7 6 6 6 6 6 7 7 5 4 4 3 4 3 2
18 19 19 19 19 18 19 20 16 15 14 16 13 14 16 12 17 19 17 11 8 8 7 8 9 8 10 13 7 7 5 4 4 8 7 5 5 6 4 3 3 1 3
19 21 20 20 19 20 21 20 18 17 17 12 13 15 14 12 16 19 17 8 8 6 7 7 12 9 11 12 7 7 6 4 4 2 1 3 3 3 2 6 3 3 2
21 20 18 19 20 21 18 15 16 16 14 14 15 12 11 12 11 19 18 10 8 7 6 4 4 9 9 13 11 6 6 7 6 4 2 1 1 1 1 2 4 4 3
18 17 18 19 16 15 18 15 15 15 15 15 13 10 10 10 15 15 17 11 8 7 5 4 4 9 9 8 9 10 13 8 5 4 2 0 1 1 2 2 3 4 4
12 15 17 17 17 16 17 17 14 17 15 14 12 10 10 8 11 22 17 12 14 7 5 6 8 7 8 7 10 12 10 5 5 3 3 2 2 1 3 4 3 2 3
11 13 11 13 14 15 12 12 13 12 11 9 11 10 9 10 9 10 8 8 8 7 12 7 6 7 4 6 4 5 4 5 5 4 3 2 0 0 1 1 1 2 2
4 3 2 4 6 6 7 4 8 3 10 9 7 6 4 9 2 4 12 9 7 7 8 5 3 3 4 3 2 3 4 4 4 3 3 2 2 1 2 1 0 1 0
10 8 7 7 8 9 10 11 15 16 17 15 15 11 14 10 7 10 8 13 15 16 3 4 4 4 4 4 4 3 3 5 4 4 3 3 3 3 2 1 1 1 2
12 11 8 7 8 13 12 14 12 14 13 8 4 10 18 21 18 14 10 12 15 10 3 3 4 5 5 5 5 5 4 4 5 4 4 4 3 2 2 0 0 1 2
11 12 8 8 1 12 9 6 10 14 4 5 9 12 15 26 24 19 19 13 6 3 3 5 4 5 5 5 5 4 4 4 3 4 4 4 3 3 2 2 1 1 2
7 6 5 7 5 9 9 14 11 10 6 5 4 10 9 16 17 20 14 7 8 5 4 4 4 5 4 5 4 5 6 5 4 4 4 4 4 3 2 2 2 3 4
7 9 8 6 5 6 12 10 7 8 7 7 8 7 6 8 8 7 3 5 6 5 5 5 4 4 5 6 6 6 5 5 4 3 3 3 3 3 3 2 1 2 2
6 5 6 5 6 8 8 8 7 7 7 7 8 7 11 11 9 8 7 6 6 5 5 6 6 7 6 5 5 6 5 5 4 4 4 5 5 3 2 2 2 2 3
6 5 6 6 5 5 4 6 6 6 5 6 4 4 7 5 7 7 5 5 5 5 7 9 7 7 7 7 6 6 6 5 5 5 5 5 5 3 2 1 1 2 3
6 6 5 3 4 5 4 4 4 5 6 5 6 7 4 4 4 6 6 5 5 6 5 5 6 5 4 4 4 6 7 6 6 6 6 5 5 4 3 1 1 2 2
7 6 4 4 3 3 4 4 5 5 4 5 7 7 7 5 5 5 5 5 5 5 5 5 5 8 7 5 5 4 4 4 5 6 7 6 5 5 3 2 1 2 3
5 6 6 5 4 4 4 4 5 6 5 5 6 3 3 5 6 5 5 5 5 5 6 7 5 6 8 10 8 7 7 10 8 8 5 6 6 6 3 2 2 1 2
2 5 4 4 4 4 4 4 4 6 5 3 4 6 6 5 5 5 5 5 5 5 6 5 7 9 10 8 9 11 8 10 9 8 6 5 5 4 3 3 4 2 3
Wind_Direction
193 195 198 200 199 193 195 196 192 184 189 184 184 184 182 186 184 187 189 181 193 191 189 190 199 176 180 181 166 141 148 143 172 298 241 300 307 300 300 251 241 240 248
194 192 198 197 194 195 203 199 192 193 191 186 183 185 188 192 190 194 194 192 194 198 202 193 211 172 204 200 195 196 172 181 149 218 253 272 240 279 272 287 262 228 238
195 195 198 198 194 198 205 199 196 195 192 191 188 190 191 193 192 201 196 194 199 201 195 195 200 186 205 192 194 207 213 178 168 169 237 237 286 293 291 266 279 305 274
193 197 198 199 198 200 204 204 196 199 193 192 194 195 195 195 196 196 195 199 203 203 202 200 194 196 198 199 188 208 209 205 185 188 216 238 226 291 286 286 308 251 268
193 196 203 199 200 201 204 205 204 199 200 195 189 193 193 197 199 194 196 201 201 203 202 208 206 203 199 191 180 199 201 193 198 221 254 248 234 248 231 265 269 316 292
195 202 196 199 199 201 202 202 200 202 203 188 192 191 192 199 196 192 194 198 200 201 204 197 211 211 213 204 204 194 185 192 189 175 208 228 252 216 211 209 216 301 297
199 200 197 198 202 202 197 198 202 201 194 196 196 191 197 203 188 192 193 197 194 198 192 204 211 217 209 215 208 207 213 202 176 168 212 213 236 204 196 199 211 201 224
196 196 199 199 201 198 196 204 205 200 200 199 193 195 196 206 189 187 190 199 192 191 194 189 204 209 194 179 184 206 213 212 207 199 214 238 219 209 192 187 201 215 277
198 200 198 200 202 198 199 203 203 201 200 204 193 187 201 205 179 183 181 190 186 189 196 197 204 203 182 175 177 201 216 242 184 211 228 244 282 289 217 166 235 161 288
196 201 199 197 200 201 202 202 199 201 207 197 195 198 197 189 179 181 177 177 182 188 202 194 195 197 178 176 180 189 203 211 151 118 67 50 56 308 280 199 173 220 190
200 202 198 200 201 205 201 202 199 198 199 195 197 193 180 180 172 166 168 167 178 188 201 188 199 191 186 188 192 184 190 142 147 143 132 246 321 324 357 110 184 174 183
202 200 201 202 198 194 197 195 195 190 196 199 191 173 169 163 150 161 164 160 170 166 187 177 178 194 201 189 162 155 149 130 134 148 149 358 318 293 280 279 241 227 224
191 197 199 197 199 200 193 186 189 190 191 191 180 176 168 163 152 159 178 155 155 150 163 156 143 158 144 136 160 160 150 138 137 141 166 187 188 237 307 305 306 352 299
201 210 205 193 195 193 190 189 189 195 186 179 188 174 164 166 171 147 138 141 155 119 120 112 123 115 110 127 120 140 137 141 153 159 163 176 234 290 236 221 279 356 3
224 256 201 154 146 89 38 269 191 144 157 148 128 110 318 96 111 260 152 156 154 135 109 120 123 117 135 143 129 157 140 130 147 145 146 189 224 201 238 172 239 3 211
62 51 57 75 65 82 77 63 19 85 98 117 121 135 126 142 171 168 126 124 137 145 130 141 149 156 169 177 163 184 159 163 174 169 181 188 212 203 245 320 107 181 265
86 77 61 48 114 109 101 98 68 358 18 117 161 174 148 137 138 118 126 127 149 156 141 154 160 161 178 171 173 200 164 181 156 165 175 189 186 195 196 203 290 273 291
112 131 131 120 324 101 95 90 94 151 172 233 15 313 121 127 130 142 132 126 155 89 111 145 172 173 175 179 201 188 134 129 119 146 146 162 176 182 175 192 207 254 271
132 153 100 156 147 235 154 134 155 169 182 125 131 60 52 81 114 135 147 155 164 149 155 153 171 186 170 174 163 123 127 129 137 150 153 157 162 158 189 209 269 253 256
73 84 104 157 181 128 90 113 138 138 140 145 122 124 125 112 144 152 135 142 150 153 155 161 179 156 166 154 135 129 124 131 141 147 158 176 166 166 182 213 228 280 294
84 80 91 110 103 108 125 152 143 142 143 136 134 153 157 154 151 161 164 156 158 149 152 161 169 162 161 147 135 128 140 154 173 185 178 169 156 171 183 205 234 268 276
55 54 57 76 89 100 117 123 126 122 129 134 127 123 132 129 157 163 159 155 152 166 170 168 169 171 164 158 149 144 159 171 184 180 175 153 148 154 164 192 295 306 303
60 73 87 97 123 123 93 100 113 131 140 129 133 146 162 170 161 160 157 153 155 162 177 165 156 165 137 138 143 158 162 184 191 167 170 150 156 170 164 195 300 303 308
81 81 88 102 119 127 153 143 122 117 122 146 166 167 166 162 174 164 162 168 173 177 169 173 175 163 163 146 161 173 178 159 155 177 168 148 158 163 166 204 219 251 288
96 95 92 107 90 45 31 75 133 143 166 173 152 137 186 155 161 190 166 172 177 166 180 173 158 161 161 165 167 177 183 164 163 170 162 143 159 171 179 194 209 262 283
78 76 69 53 74 98 120 145 190 144 148 219 209 171 185 179 174 185 167 177 184 177 163 162 152 163 182 172 170 180 168 176 166 175 155 145 160 175 181 206 235 217 261